Flag for Germany Weather past 2 weeks in Rastatt, Baden-Württemberg, Germany

Now
84 °F

Passing clouds.


Feels Like: 83 °F
Forecast: 63 / 90 °F
Wind: 9 mph from North

Location: Karlsruhe - Baden Wurttemberg

Current Time: Jun 30, 2015 at 4:57:58 PM

Latest Report: Jun 30, 2015 at 4:20 PM


Visibility: N/A

Pressure: 30.07 "Hg

Humidity: 40%

Dew point: 57 °F

Location of RastattLocation

Historic Weather in Rastatt — Graph

°F

Rastatt temperature yesterday

Maximum temperature yesterday: 84 °F (at 4:20 PM)
Minimum temperature yesterday: 57 °F (at 5:20 AM)
Average temperature yesterday: 73 °F

Past Weeks' High & Low Weather Summary

 TemperatureHumidityPressure
High84 °F (Jun 29, 4:20 PM)94% (Jun 18, 11:20 AM)30.24 "Hg (Jun 18, 11:20 AM)
Low48 °F (Jun 23, 6:20 AM)23% (Jun 26, 3:20 PM)29.74 "Hg (Jun 22, 7:50 PM)
Average64 °F64%30.09 "Hg
* Reported Jun 15 2:20 PM — Jun 30 2:50 PM, Rastatt, Weather by CustomWeather, © 2015

Note: Actual official high and low records may vary slightly from our data, if they occured in-between our weather recording intervals... More about our weather records

Advertising

Rastatt weather history for previous 24 hours

 ConditionsComfort  
Time TempWeatherWind HumidityBarometerVisibility
2:50 PM
Tue, Jun 30
84 °FSunny.9 mph37%30.09 "Hg10 mi
2:20 PM82 °FPassing clouds.9 mph42%30.09 "HgN/A
1:50 PM82 °FPassing clouds.9 mph42%30.12 "HgN/A
1:20 PM81 °FSunny.10 mph45%30.12 "Hg10 mi
12:50 PM81 °FSunny.10 mph45%30.12 "Hg10 mi
12:20 PM79 °FPassing clouds.9 mph48%30.12 "HgN/A
11:50 AM77 °FPassing clouds.8 mph51%30.12 "HgN/A
11:20 AM75 °FPassing clouds.9 mph57%30.15 "HgN/A
10:50 AM75 °FPassing clouds.8 mph57%30.15 "HgN/A
10:20 AM73 °FSunny.7 mph57%30.15 "Hg10 mi
9:50 AM72 °FPassing clouds.7 mph61%30.15 "HgN/A
9:20 AM72 °FPassing clouds.8 mph57%30.15 "HgN/A
8:50 AM70 °FSunny.8 mph60%30.15 "Hg10 mi
8:20 AM68 °FSunny.9 mph64%30.15 "Hg10 mi
7:50 AM66 °FSunny.9 mph68%30.15 "Hg10 mi
7:20 AM64 °FSunny.6 mph73%30.15 "Hg10 mi
6:50 AM63 °FSunny.7 mph77%30.12 "Hg10 mi
6:20 AM61 °FClear.7 mph83%30.12 "Hg10 mi
5:50 AM61 °FClear.6 mph77%30.12 "Hg10 mi
5:20 AM61 °FClear.7 mph77%30.12 "Hg10 mi
4:50 AM61 °FClear.7 mph83%30.12 "Hg10 mi
11:20 PM
Mon, Jun 29
70 °FClear.No wind64%30.15 "Hg10 mi
10:50 PM72 °FClear.1 mph61%30.15 "Hg10 mi
10:20 PM73 °FSunny.2 mph53%30.15 "Hg10 mi
9:50 PM75 °FSunny.3 mph47%30.12 "Hg4 mi
9:20 PM79 °FSunny.1 mph39%30.12 "Hg10 mi
8:50 PM81 °FSunny.3 mph37%30.12 "Hg10 mi
8:20 PM81 °FSunny.3 mph37%30.12 "Hg10 mi
7:50 PM82 °FSunny.3 mph37%30.12 "Hg10 mi
7:20 PM84 °FSunny.3 mph33%30.12 "Hg10 mi
6:50 PM84 °FPassing clouds.5 mph35%30.12 "HgN/A
6:20 PM84 °FPassing clouds.6 mph35%30.09 "HgN/A
5:50 PM84 °FSunny.3 mph37%30.09 "Hg10 mi
5:20 PM82 °FPassing clouds.7 mph35%30.12 "HgN/A
4:50 PM84 °FPassing clouds.5 mph33%30.12 "HgN/A
4:20 PM84 °FPassing clouds.6 mph33%30.12 "HgN/A
Weather by CustomWeather, © 2015

See weather overviewHow to use our weather pages